This is the latest recevied weather packets stored in our database for station/object WA1NHP. If no packets are shown the sender has not sent any weather packets the latest 10 day(s).
| Time | Temp. | Humidity | Pressure | Rain* | Wind** | Luminosity | Snow |
|---|---|---|---|---|---|---|---|
| 1777487044 | 16.67° C | 56% | 1023.9 hPa | 0 mm | - | 450 W/m² | - |
| 1777486444 | 16.67° C | 53% | 1023.9 hPa | 0 mm | - | 469 W/m² | - |
| 1777485844 | 16.67° C | 55% | 1023.9 hPa | 0 mm | - | 512 W/m² | - |
| 1777485245 | 16.11° C | 54% | 1023.9 hPa | 0 mm | - | 566 W/m² | - |
| 1777484644 | 16.67° C | 54% | 1023.9 hPa | 0 mm | - | 633 W/m² | - |
| 1777484044 | 17.22° C | 53% | 1023.9 hPa | 0 mm | - | 585 W/m² | - |
| 1777483444 | 17.22° C | 54% | 1023.9 hPa | 0 mm | - | 633 W/m² | - |
| 1777482844 | 17.22° C | 53% | 1023.9 hPa | 0 mm | - | 682 W/m² | - |
| 1777482244 | 17.22° C | 55% | 1023.9 hPa | 0 mm | - | 802 W/m² | - |
| 1777481644 | 16.67° C | 54% | 1023.9 hPa | 0 mm | - | 918 W/m² | - |
| 1777481044 | 16.67° C | 53% | 1023.9 hPa | 0 mm | - | 963 W/m² | - |
| 1777480444 | 16.11° C | 56% | 1023.9 hPa | 0 mm | - | 963 W/m² | - |
| 1777479843 | 16.67° C | 56% | 1023.9 hPa | 0 mm | - | 942 W/m² | - |
| 1777479244 | 16.67° C | 54% | 1023.9 hPa | 0 mm | - | 977 W/m² | - |
| 1777478644 | 16.67° C | 53% | 1023.9 hPa | 0 mm | - | 935 W/m² | - |
| 1777478044 | 16.11° C | 56% | 1023.9 hPa | 0 mm | - | 962 W/m² | - |
| 1777477444 | 15.56° C | 58% | 1023.9 hPa | 0 mm | - | 962 W/m² | - |
| 1777476844 | 16.11° C | 59% | 1023.9 hPa | 0 mm | - | 946 W/m² | - |
| 1777476244 | 15° C | 57% | 1023.9 hPa | 0 mm | - | 933 W/m² | - |
| 1777475643 | 15° C | 59% | 1023.9 hPa | 0 mm | - | 928 W/m² | - |
| 1777475044 | 15° C | 61% | 1023.9 hPa | 0 mm | - | 909 W/m² | - |
| 1777474443 | 13.89° C | 63% | 1023.9 hPa | 0 mm | - | 893 W/m² | - |
| 1777473844 | 13.33° C | 63% | 1023.9 hPa | 0 mm | - | 877 W/m² | - |
| 1777473244 | 13.33° C | 62% | 1023.9 hPa | 0 mm | - | 856 W/m² | - |
| 1777472644 | 12.78° C | 64% | 1023.9 hPa | 0 mm | - | 837 W/m² | - |
* Rain latest hour (hover to see other rain measurements)
** Current wind speed in m/s (hover to see current wind gust speed)